Total_Precipitation_Accumulation
3.52 3.91 3.92 3.88 3.79 3.88 3.82 3.69 3.48 3.49 3.48 3.24 3.03 3.09 3.15 3.12 3.21 3.47 3.65 3.65 3.78 4.16 4.74 5.11 5.13 4.90 4.76 4.62 4.63 4.43 4.10 3.85 3.66 3.41 3.22 3.08 2.92 2.85 2.83 2.79 2.75 2.57 2.47
4.07 4.32 4.35 4.31 4.09 4.18 4.10 3.98 3.79 3.83 3.86 3.83 3.66 3.57 3.43 3.37 3.35 3.48 3.79 4.03 3.99 4.04 4.59 5.28 5.58 5.51 5.29 5.01 4.81 4.45 4.21 4.07 3.93 3.71 3.44 3.22 2.96 2.89 2.94 2.95 2.93 2.73 2.57
4.64 4.77 4.83 4.56 4.39 4.43 4.62 4.63 4.52 4.45 4.14 4.04 3.98 3.96 3.78 3.52 3.47 3.66 3.96 4.46 4.36 4.44 4.65 4.81 5.03 5.10 5.31 5.40 5.25 4.96 4.55 4.27 4.16 4.03 3.75 3.60 3.35 3.10 3.06 3.11 3.19 3.07 2.77
4.63 4.88 4.84 4.69 4.62 4.61 4.92 5.12 5.11 5.05 4.81 4.65 4.38 4.11 3.87 3.83 3.76 3.91 4.04 4.31 4.61 4.61 4.84 4.73 4.64 4.68 4.99 5.28 5.39 5.38 5.08 4.62 4.40 4.44 4.28 4.05 3.83 3.67 3.43 3.26 3.27 3.25 3.11
4.94 5.08 4.95 4.99 5.05 5.14 5.15 4.91 5.13 5.01 5.01 4.92 4.36 4.13 3.89 3.89 4.02 3.94 4.04 4.15 4.44 4.54 4.65 4.52 4.50 4.57 4.81 5.20 5.38 5.53 5.53 5.22 4.84 4.65 4.67 4.51 4.22 3.94 3.69 3.47 3.29 3.18 3.16
5.31 5.62 5.57 5.50 5.53 5.52 5.37 5.27 5.34 5.05 4.95 4.93 4.35 4.15 3.91 3.79 3.85 3.94 3.91 3.99 4.04 3.94 3.97 3.99 4.26 4.18 4.41 4.71 4.89 5.14 5.50 5.59 5.26 4.88 4.67 4.70 4.49 4.04 3.61 3.44 3.34 3.26 3.15
6.14 6.24 6.03 5.93 5.78 5.77 5.71 5.69 5.61 5.34 5.08 5.11 5.05 4.62 4.05 3.78 3.75 3.68 3.69 3.76 3.76 3.70 3.83 3.88 3.82 3.71 3.70 3.96 4.17 4.50 4.96 5.42 5.44 5.26 5.05 4.92 4.71 4.27 3.82 3.48 3.37 3.31 3.20
6.22 6.15 6.32 6.28 6.17 6.07 5.91 5.75 5.68 5.48 5.08 5.09 5.13 5.11 4.54 4.21 3.72 3.25 3.22 3.26 3.42 3.64 3.56 3.49 3.59 3.63 3.46 3.49 3.44 3.94 4.37 4.80 5.21 5.24 5.08 4.83 4.55 4.25 4.06 3.85 3.66 3.47 3.34
6.30 6.13 6.05 5.91 5.88 5.78 5.78 5.66 5.47 5.32 5.13 5.01 4.99 5.24 4.84 4.36 3.88 3.52 3.10 3.00 3.16 3.34 3.27 3.28 3.21 3.31 3.31 3.44 3.40 3.65 3.98 4.01 4.49 4.90 5.02 4.79 4.53 4.24 4.07 3.98 3.85 3.70 3.59
5.81 5.58 5.50 5.47 5.42 5.09 5.01 4.87 4.86 4.77 4.70 4.53 4.57 4.41 4.27 4.10 4.12 4.02 3.66 3.39 3.31 3.31 3.25 3.11 3.08 3.24 3.25 3.40 3.52 3.43 3.47 3.48 3.76 4.23 4.65 4.72 4.56 4.40 4.30 4.20 4.09 4.00 3.98
5.23 4.92 4.82 4.75 4.56 4.20 3.93 3.88 4.09 4.15 4.17 4.11 4.15 4.10 4.09 3.97 3.84 3.84 3.79 3.68 3.56 3.31 3.19 3.19 3.19 3.16 3.11 3.15 3.26 3.30 3.24 3.11 3.13 3.29 3.80 4.25 4.46 4.49 4.44 4.25 4.17 4.14 4.16
4.68 4.28 3.91 3.75 3.54 3.40 3.25 3.28 3.41 3.51 3.78 3.91 4.08 4.04 4.04 3.96 3.76 3.70 3.54 3.53 3.58 3.42 3.19 3.00 2.94 2.96 2.95 2.91 2.84 3.11 2.88 2.77 2.74 2.73 2.94 3.31 3.78 4.08 4.04 4.08 4.20 4.25 4.32
3.91 3.57 3.22 3.17 3.05 2.99 2.94 3.00 3.10 3.11 3.24 3.45 3.60 3.70 3.73 3.71 3.69 3.67 3.74 3.69 3.54 3.33 3.22 2.95 2.71 2.66 2.68 2.80 2.76 2.84 2.60 2.52 2.46 2.41 2.38 2.50 2.73 3.05 3.31 3.58 3.78 3.94 3.99
3.09 2.89 2.65 2.49 2.49 2.59 2.53 2.69 2.81 2.86 2.87 2.96 2.99 3.32 3.42 3.35 3.38 3.37 3.43 3.61 3.64 3.39 3.10 2.82 2.59 2.48 2.43 2.40 2.50 2.55 2.22 2.26 2.13 2.16 2.19 2.18 2.20 2.30 2.49 2.67 2.81 2.90 3.00
2.42 2.29 2.21 2.19 2.16 2.23 2.38 2.48 2.46 2.46 2.60 2.68 2.75 2.96 2.96 2.85 2.87 2.98 3.11 3.31 3.58 3.52 3.18 2.79 2.54 2.33 2.18 2.09 2.24 2.07 1.97 2.01 1.85 1.83 1.89 1.89 1.86 1.92 1.99 2.07 2.24 2.28 2.25
2.15 2.10 2.02 1.97 1.94 1.95 2.01 2.15 2.20 2.24 2.31 2.41 2.52 2.60 2.61 2.50 2.53 2.62 2.82 3.03 3.18 3.26 3.07 2.57 2.27 2.07 1.98 1.80 2.03 1.90 1.91 1.94 1.69 1.65 1.66 1.78 1.87 1.83 1.77 1.78 1.83 1.96 2.00
1.93 1.87 1.81 1.73 1.68 1.67 1.74 1.87 1.91 1.99 2.06 2.15 2.27 2.32 2.33 2.31 2.40 2.42 2.47 2.52 2.70 2.85 2.77 2.43 2.24 2.12 2.10 1.97 1.99 1.96 1.91 1.83 1.63 1.62 1.56 1.67 1.82 1.79 1.67 1.63 1.62 1.67 1.79
1.84 1.77 1.67 1.58 1.48 1.47 1.54 1.58 1.60 1.71 1.85 1.90 1.96 2.05 2.00 2.02 2.12 2.12 2.19 2.22 2.31 2.49 2.54 2.52 2.42 2.33 2.24 2.09 2.14 2.10 1.75 1.54 1.50 1.54 1.43 1.37 1.45 1.50 1.49 1.44 1.39 1.35 1.39
1.82 1.71 1.58 1.52 1.47 1.43 1.45 1.49 1.53 1.54 1.62 1.69 1.71 1.78 1.84 1.91 1.83 1.76 1.83 1.94 1.99 2.08 2.35 2.38 2.27 2.22 2.05 1.89 2.06 1.99 1.84 1.91 1.48 1.39 1.28 1.20 1.20 1.22 1.25 1.23 1.21 1.18 1.12
1.70 1.64 1.59 1.50 1.44 1.40 1.41 1.43 1.42 1.51 1.55 1.56 1.56 1.60 1.59 1.62 1.65 1.71 1.74 1.90 1.98 2.12 2.24 2.25 2.18 2.13 2.00 1.90 2.05 2.05 2.04 1.95 1.62 1.24 1.19 1.05 1.11 1.11 1.09 1.07 1.05 1.04 1.02
1.67 1.64 1.59 1.52 1.39 1.26 1.19 1.26 1.31 1.40 1.54 1.58 1.56 1.47 1.43 1.49 1.55 1.56 1.49 1.67 1.84 2.00 2.00 2.02 2.01 2.05 1.96 2.03 1.99 1.91 1.98 2.02 1.84 1.52 1.54 1.27 1.19 1.19 1.17 1.11 1.02 0.99 0.96
1.64 1.61 1.51 1.41 1.34 1.18 1.23 1.24 1.30 1.42 1.51 1.52 1.47 1.43 1.35 1.31 1.29 1.31 1.27 1.38 1.60 1.73 1.84 1.93 1.94 1.97 1.97 2.09 2.11 2.06 2.06 2.10 2.03 1.68 1.74 1.63 1.48 1.53 1.37 1.21 1.09 0.95 0.88
1.67 1.56 1.45 1.41 1.40 1.34 1.21 1.09 1.12 1.24 1.39 1.40 1.39 1.41 1.21 1.08 1.20 1.18 1.21 1.22 1.26 1.31 1.45 1.69 1.88 1.95 2.10 2.26 2.38 2.27 2.20 2.15 2.12 1.89 2.01 1.92 1.74 1.75 1.42 1.22 1.25 1.06 0.92
1.58 1.56 1.51 1.54 1.56 1.33 1.09 0.91 1.01 1.23 1.36 1.24 1.21 1.27 1.32 1.34 1.25 1.23 1.23 1.27 1.27 1.25 1.27 1.34 1.61 1.75 1.82 2.06 2.30 2.35 2.36 2.25 2.20 2.13 2.24 2.16 1.75 1.64 1.42 1.57 1.56 1.35 1.13
1.46 1.49 1.50 1.56 1.53 1.39 1.17 0.97 1.00 1.18 1.29 1.27 1.23 1.20 1.19 1.20 1.17 1.20 1.30 1.47 1.51 1.45 1.19 1.23 1.36 1.46 1.52 1.68 1.86 2.12 2.37 2.46 2.33 2.15 2.15 2.16 1.89 1.78 1.76 1.92 1.81 1.73 1.49
1.37 1.38 1.42 1.54 1.50 1.39 1.17 0.95 0.93 1.01 1.17 1.33 1.46 1.42 1.32 1.20 1.13 1.17 1.33 1.54 1.61 1.58 1.56 1.65 1.76 1.73 1.67 1.72 1.72 1.94 2.31 2.49 2.41 2.31 2.15 2.22 2.16 2.13 2.18 2.13 2.09 1.94 1.86